Tracking 18030 objects as of 29-March-2017
HD Live streaming from Space Station
objects crossing your sky now

COSMOS 1412

Track COSMOS 1412 now!
10-day predictions
COSMOS 1412 is classified as:


NORAD ID: 13600
Int'l Code: 1982-099A
Perigee: 894.6 km
Apogee: 1,003.6 km
Inclination: 64.8 °
Period: 103.9 minutes
Semi major axis: 7320 km
RCS: 3.2535 m2 (large)
Launch date: October 2, 1982
Source: Commonwealth of Independent States (former USSR) (CIS)
Launch site: TYURATAM MISSILE AND SPACE COMPLEX (TTMTR)
Your satellite tracking list
Your tracking list is empty





NASA's NSSDC Master Catalog

Two Line Element Set (TLE):
1 13600U 82099A   17086.87218145 -.00000071 +00000-0 +16443-4 0  9997
2 13600 064.8138 177.7630 0074486 296.5621 184.8950 13.86197935733014
Source of the keplerian elements: AFSPC